• In Russia
  • List of Countries
  • For 7 days
  • Water Temperature
  • Satellite Maps
  • Weather Map
  • Weather Widgets
  • user-avatar
    Login

    Hourly Weather Szigetvar

    Today, 20 November, Monday

    Time Temperature Precipitation Wind Pressure Humidity
    00:00 +2°C° 0 mm 2 mps 753 mmHg 83%
    01:00 +2°C° 0 mm 2 mps 752 mmHg 85%
    02:00 +2°C° 0 mm 2 mps 752 mmHg 86%
    03:00 +2°C° 0 mm 2 mps 753 mmHg 87%
    04:00 +1°C° 0 mm 3 mps 753 mmHg 88%
    05:00 +1°C° 0 mm 3 mps 753 mmHg 88%
    06:00 +1°C° 0 mm 3 mps 753 mmHg 88%
    07:00 0°C° 0 mm 3 mps 753 mmHg 90%
    08:00 +2°C° 0 mm 3 mps 754 mmHg 83%
    09:00 +3°C° 0 mm 3 mps 754 mmHg 76%
    10:00 +4°C° 0 mm 4 mps 754 mmHg 68%
    11:00 +5°C° 0 mm 4 mps 754 mmHg 62%
    12:00 +6°C° 0 mm 4 mps 754 mmHg 55%
    13:00 +8°C° 0 mm 4 mps 754 mmHg 49%
    14:00 +8°C° 0 mm 3 mps 754 mmHg 52%
    15:00 +7°C° 0 mm 2 mps 754 mmHg 56%
    16:00 +6°C° 0 mm 2 mps 754 mmHg 59%
    17:00 +7°C° 0 mm 1 mps 754 mmHg 61%
    18:00 +6°C° 0 mm 1 mps 754 mmHg 63%
    19:00 +5°C° 0 mm 1 mps 754 mmHg 65%
    20:00 +5°C° 0 mm 1 mps 754 mmHg 65%
    21:00 +6°C° 0 mm 1 mps 755 mmHg 64%
    22:00 +6°C° 0 mm 1 mps 755 mmHg 64%
    23:00 +4°C° 0 mm 2 mps 755 mmHg 65%

    Tomorrow, 21 November, Tuesday

    Time Temperature Precipitation Wind Pressure Humidity
    00:00 +4°C° 0 mm 2 mps 754 mmHg 65%
    01:00 +4°C° 0 mm 2 mps 754 mmHg 65%
    02:00 +4°C° 0 mm 2 mps 754 mmHg 65%
    03:00 +4°C° 0 mm 2 mps 753 mmHg 64%
    04:00 +3°C° 0 mm 3 mps 753 mmHg 64%
    05:00 +3°C° 0.1 mm 3 mps 753 mmHg 66%
    06:00 +3°C° 0.1 mm 3 mps 752 mmHg 68%
    07:00 +3°C° 0.1 mm 3 mps 752 mmHg 70%
    08:00 +4°C° 0 mm 3 mps 752 mmHg 68%
    09:00 +5°C° 0 mm 3 mps 752 mmHg 66%
    10:00 +7°C° 0 mm 4 mps 752 mmHg 64%
    11:00 +8°C° 0 mm 4 mps 752 mmHg 63%
    12:00 +8°C° 0 mm 4 mps 752 mmHg 62%
    13:00 +10°C° 0 mm 4 mps 751 mmHg 62%
    14:00 +10°C° 0 mm 4 mps 751 mmHg 65%
    15:00 +10°C° 0 mm 3 mps 752 mmHg 68%
    16:00 +9°C° 0 mm 3 mps 752 mmHg 71%
    17:00 +9°C° 0 mm 3 mps 752 mmHg 74%
    18:00 +9°C° 0 mm 3 mps 752 mmHg 76%
    19:00 +8°C° 0 mm 3 mps 752 mmHg 79%
    20:00 +8°C° 0 mm 3 mps 753 mmHg 80%
    21:00 +8°C° 0 mm 3 mps 753 mmHg 81%
    22:00 +8°C° 0 mm 3 mps 753 mmHg 82%
    23:00 +8°C° 0 mm 3 mps 753 mmHg 82%

    Day after tomorrow, 22 November, Wednesday

    Time Temperature Precipitation Wind Pressure Humidity
    00:00 +8°C° 0 mm 3 mps 753 mmHg 83%
    01:00 +8°C° 0 mm 3 mps 753 mmHg 83%
    02:00 +8°C° 0 mm 3 mps 753 mmHg 84%
    03:00 +8°C° 0 mm 3 mps 753 mmHg 84%
    04:00 +7°C° 0 mm 3 mps 753 mmHg 85%
    05:00 +7°C° 0 mm 3 mps 753 mmHg 86%
    06:00 +7°C° 0 mm 3 mps 753 mmHg 88%
    07:00 +5°C° 0 mm 3 mps 753 mmHg 89%
    08:00 +8°C° 0 mm 3 mps 753 mmHg 83%
    09:00 +8°C° 0 mm 4 mps 753 mmHg 77%
    10:00 +11°C° 0 mm 4 mps 753 mmHg 72%
    11:00 +12°C° 0 mm 4 mps 753 mmHg 68%
    12:00 +13°C° 0 mm 4 mps 753 mmHg 65%
    13:00 +14°C° 0 mm 5 mps 752 mmHg 61%
    14:00 +13°C° 0 mm 4 mps 752 mmHg 66%
    15:00 +12°C° 0 mm 3 mps 752 mmHg 70%
    16:00 +12°C° 0 mm 3 mps 752 mmHg 74%
    17:00 +11°C° 0 mm 3 mps 752 mmHg 77%
    18:00 +10°C° 0 mm 3 mps 753 mmHg 79%
    19:00 +10°C° 0 mm 3 mps 753 mmHg 82%
    20:00 +10°C° 0 mm 3 mps 753 mmHg 82%
    21:00 +9°C° 0 mm 3 mps 753 mmHg 83%
    22:00 +9°C° 0 mm 3 mps 753 mmHg 83%
    23:00 +9°C° 0 mm 3 mps 753 mmHg 84%

    23 November, Thursday

    Time Temperature Precipitation Wind Pressure Humidity
    00:00 +9°C° 0 mm 3 mps 753 mmHg 85%
    01:00 +8°C° 0 mm 3 mps 753 mmHg 85%
    02:00 +8°C° 0 mm 3 mps 753 mmHg 86%
    03:00 +8°C° 0 mm 3 mps 753 mmHg 86%
    04:00 +8°C° 0 mm 3 mps 753 mmHg 86%
    05:00 +8°C° 0 mm 3 mps 753 mmHg 86%
    06:00 +8°C° 0 mm 3 mps 753 mmHg 86%
    07:00 +8°C° 0 mm 3 mps 753 mmHg 86%
    08:00 +8°C° 0 mm 4 mps 754 mmHg 79%
    09:00 +11°C° 0 mm 4 mps 754 mmHg 73%
    10:00 +12°C° 0 mm 5 mps 754 mmHg 67%
    11:00 +13°C° 0 mm 5 mps 754 mmHg 65%
    12:00 +14°C° 0 mm 5 mps 754 mmHg 62%
    13:00 +15°C° 0 mm 5 mps 754 mmHg 60%
    14:00 +14°C° 0 mm 4 mps 755 mmHg 64%
    15:00 +13°C° 0 mm 3 mps 755 mmHg 69%
    16:00 +13°C° 0 mm 2 mps 755 mmHg 73%
    17:00 +12°C° 0 mm 2 mps 755 mmHg 76%
    18:00 +12°C° 0 mm 2 mps 756 mmHg 79%
    19:00 +10°C° 0 mm 2 mps 756 mmHg 82%
    20:00 +9°C° 0 mm 2 mps 756 mmHg 84%
    21:00 +10°C° 0 mm 1 mps 756 mmHg 86%
    22:00 +9°C° 0 mm 1 mps 757 mmHg 88%
    23:00 +9°C° 0 mm 1 mps 757 mmHg 88%

    24 November, Friday

    Time Temperature Precipitation Wind Pressure Humidity
    00:00 +9°C° 0 mm 1 mps 757 mmHg 89%
    01:00 +8°C° 0 mm 1 mps 757 mmHg 90%
    02:00 +8°C° 0 mm 1 mps 757 mmHg 91%
    03:00 +8°C° 0 mm 1 mps 757 mmHg 91%
    04:00 +7°C° 0 mm 1 mps 757 mmHg 92%
    05:00 +7°C° 0 mm 1 mps 757 mmHg 92%
    06:00 +7°C° 0 mm 1 mps 757 mmHg 92%
    07:00 +6°C° 0 mm 0 mps 758 mmHg 92%
    08:00 +7°C° 0 mm 0 mps 758 mmHg 87%
    09:00 +8°C° 0 mm 0 mps 758 mmHg 82%
    10:00 +9°C° 0 mm 0 mps 758 mmHg 77%
    11:00 +11°C° 0 mm 1 mps 758 mmHg 72%
    12:00 +12°C° 0 mm 1 mps 758 mmHg 68%
    13:00 +13°C° 0 mm 1 mps 757 mmHg 63%
    14:00 +12°C° 0 mm 1 mps 757 mmHg 67%
    15:00 +11°C° 0 mm 0 mps 757 mmHg 71%
    16:00 +10°C° 0 mm 0 mps 757 mmHg 74%
    17:00 +10°C° 0 mm 1 mps 757 mmHg 77%
    18:00 +10°C° 0 mm 1 mps 757 mmHg 80%
    19:00 +9°C° 0 mm 1 mps 758 mmHg 83%
    20:00 +9°C° 0 mm 1 mps 758 mmHg 84%
    21:00 +9°C° 0 mm 1 mps 758 mmHg 86%
    22:00 +7°C° 0 mm 2 mps 758 mmHg 87%
    23:00 +8°C° 0 mm 1 mps 758 mmHg 88%

    25 November, Saturday

    Time Temperature Precipitation Wind Pressure Humidity
    00:00 +8°C° 0 mm 1 mps 758 mmHg 88%
    01:00 +7°C° 0 mm 1 mps 758 mmHg 89%
    02:00 +7°C° 0 mm 1 mps 758 mmHg 89%
    03:00 +7°C° 0 mm 1 mps 758 mmHg 89%
    04:00 +7°C° 0 mm 1 mps 757 mmHg 89%
    05:00 +7°C° 0 mm 1 mps 757 mmHg 89%
    06:00 +5°C° 0 mm 2 mps 757 mmHg 89%
    07:00 +5°C° 0 mm 2 mps 757 mmHg 89%
    08:00 +6°C° 0 mm 2 mps 757 mmHg 84%
    09:00 +8°C° 0 mm 2 mps 757 mmHg 78%
    10:00 +9°C° 0 mm 2 mps 757 mmHg 73%
    11:00 +10°C° 0 mm 2 mps 756 mmHg 69%
    12:00 +12°C° 0 mm 2 mps 756 mmHg 65%
    13:00 +12°C° 0 mm 3 mps 755 mmHg 61%
    14:00 +12°C° 0 mm 3 mps 755 mmHg 65%
    15:00 +12°C° 0 mm 2 mps 755 mmHg 69%
    16:00 +10°C° 0 mm 2 mps 755 mmHg 73%
    17:00 +10°C° 0 mm 3 mps 755 mmHg 75%
    18:00 +10°C° 0 mm 3 mps 756 mmHg 77%
    19:00 +9°C° 0 mm 3 mps 756 mmHg 79%
    20:00 +10°C° 0 mm 3 mps 756 mmHg 80%
    21:00 +10°C° 0 mm 3 mps 756 mmHg 81%
    22:00 +10°C° 0 mm 4 mps 756 mmHg 82%
    23:00 +10°C° 0 mm 4 mps 756 mmHg 83%
    Show more